Flag for Chile Weather past 2 weeks in Santiago, Chile

Now
66 °F

Sunny.


Feels Like: 66 °F
Forecast: 55 / 85 °F
Wind: 2 mph from North

Location: Pudahuel

Current Time: Dec 18, 2014 at 10:06:51 AM

Latest Report: Dec 18, 2014 at 9:00 AM


Visibility: 10 mi

Pressure: 30.01 "Hg

Humidity: 46%

Dew point: 45 °F

Location of SantiagoLocation

Historic Weather in Santiago — Graph

°F

Santiago temperature yesterday

Maximum temperature yesterday: 84 °F (at 3:00 PM)
Minimum temperature yesterday: 54 °F (at 5:00 AM)
Average temperature yesterday: 68 °F

Past Weeks' High & Low Weather Summary

 TemperatureHumidityPressure
High93 °F (Dec 3, 5:00 PM)88% (Dec 5, 5:00 AM)30.21 "Hg (Dec 5, 5:00 AM)
Low48 °F (Dec 15, 6:00 AM)13% (Dec 3, 5:00 PM)29.77 "Hg (Dec 3, 3:00 PM)
Average67 °F51%29.97 "Hg
* Reported Dec 3 9:00 AM — Dec 18 9:00 AM, Santiago, Weather by CustomWeather, © 2014

Note: Actual official high and low records may vary slightly from our data, if they occured in-between our weather recording intervals... More about our weather records

Advertising

Santiago weather history for previous 24 hours

 ConditionsComfort  
Time TempWeatherWind HumidityBarometerVisibility
9:00 AM
Dec 18
66 °FSunny.2 mph46%30.01 "Hg10 mi
8:00 AM61 °FSunny.No wind52%30.01 "Hg10 mi
7:00 AM55 °FSunny.1 mph59%29.98 "Hg10 mi
6:00 AM55 °FClear.2 mph59%29.98 "Hg10 mi
5:00 AM57 °FClear.1 mph59%29.98 "Hg10 mi
4:00 AM59 °FClear.1 mph51%30.01 "Hg10 mi
3:00 AM63 °FClear.7 mph45%30.01 "Hg10 mi
2:00 AM63 °FClear.5 mph45%30.01 "Hg10 mi
1:00 AM66 °FClear.6 mph40%30.04 "Hg10 mi
12:00 AM68 °FClear.7 mph38%30.04 "Hg10 mi
11:00 PM
Dec 17
70 °FPassing clouds.12 mph33%30.04 "HgN/A
10:00 PM72 °FClear.15 mph33%30.04 "Hg10 mi
9:00 PM73 °FClear.16 mph31%30.01 "Hg10 mi
8:00 PM77 °FSunny.17 mph30%30.01 "Hg10 mi
7:00 PM81 °FSunny.20 mph24%29.98 "Hg10 mi
6:00 PM82 °FSunny.18 mph25%30.01 "Hg10 mi
5:00 PM82 °FPassing clouds.15 mph26%30.01 "HgN/A
4:00 PM82 °FSunny.13 mph25%30.01 "Hg10 mi
3:00 PM84 °FPassing clouds.14 mph25%30.01 "HgN/A
2:00 PM79 °FPassing clouds.9 mph30%30.04 "HgN/A
1:00 PM77 °FPassing clouds.10 mph34%30.04 "HgN/A
12:00 PM73 °FPassing clouds.10 mph41%30.07 "HgN/A
11:00 AM70 °FPassing clouds.3 mph46%30.07 "HgN/A
10:00 AM66 °FSunny.2 mph52%30.09 "Hg10 mi
Weather by CustomWeather, © 2014

See weather overviewHow to use our weather pages